EKRAN 2 DEB, 29014

Orbit data source: Space-Track

EKRAN 2 DEB, 29014 is space debris in GEO originally from a launch on Tue, 20 Sep 1977 UTC launched from the Tyuratam Missile And Space Complex (TTMTR). Debris objects in space refer to the collection of defunct objects orbiting the Earth. Examples of debris include non-operational satellites, rocket bodies, and fragments generated from explosions, collisions, or faulty payload assembly.

Not visible in the next 10 days
Identifier
29014, 1977-092K
Orbit
GEO
Last TLE update
22 hours ago
Origin
Manufacturer
Unknown
Mission
Spacecraft
Bus & Motor
Unknown
Mass
Unknown
Launch date (UTC)
1977-09-20 (48 years ago)
Launch vehicle
Unknown
Launch site
Tyuratam Missile And Space Complex (TTMTR)
Object type
Payload
Rocket body
Debris
Shape & HBR
Unknown
Radar Cross Section
Medium (>0.1 m² and <1 m²)

Expand to show TLE details & history

TLE from 22 hours ago
0 EKRAN 2 DEB
1 29014U 77092K   25129.17033642  .00000065  00000-0  00000-0 0  9997
2 29014   5.1717 279.7081 0018550 336.0006  45.6425  1.00142822 43238
Epoch: 2025-05-09T04:05Z
Definitive object data (Epoch: 2025-05-09T04:05:17.066Z)
Latitude
1.93797°
Longitude
12.86001°
Altitude
35,767.561 km
Speed
3.077 km/s
True Right ascension
20h 05m 38s
True Declination
1° 56' 10"
Sunlit
Object was in daylight at TLE epoch
Visualization TLE readout
Latitude
-1.28012°
Longitude
-23.20802°
Altitude
35,745.07 km
Speed
3.079 km/s
Apparent Right ascension
18h 03m 43s
Apparent Declination
-6° 24' 42"
Sunlit
Object is in daylight
Visualization observer readout
Local Sidereal Time
09:51:03
Azimuth
72.443° E
Elevation
-29.25°
Doppler factor
1
Orbital elements
Apogee altitude
35,902.128 km
Perigee altitude
35,745.559 km
Semi-major axis
42,201.981 km
Eccentricity
0.001855
Inclination
5.1717°
RAAN
279.7081°
Arg. of periapsis
336.0006°
True anomaly
45.79473°
Mean anomaly
45.6425°
Eccentric anomaly
45.71859°
Mean motion
0.25035 °/min
BSTAR
Unknown
Orbital period
1438 mins
Loading historical data...
29014 neighbors
Loading maneuver chart data...
Loading SW <> Apogee altitude chart data...
Loading historical data...
Loading historical data...
Loading historical data...
Loading historical data...
Loading historical data...
Loading historical data...
Loading historical data...

EKRAN 2 DEB Visibility forecast

Observer location: undefined°, undefined°

EKRAN 2 DEB is not visible in the next 10 days
Span
Click to sort rows by Start time (UTC) header in descending order
Start Az.
Max El. time (UTC)
Max El. Az.
Max El.
End time (UTC)
End Az.
|